Weather reports worldwide

Advertisment
Nancy/Essey, France (7180): temperature & dewpoint: 10.01.2018 08:00:00 - 16.01.2018 08:00:00 (CET)Nancy/Essey, France (7180): temperature 5cm: 10.01.2018 08:00:00 - 16.01.2018 08:00:00 (CET)Nancy/Essey, France (7180): temperature -20cm & temperature -100cm: 10.01.2018 08:00:00 - 16.01.2018 08:00:00 (CET)Nancy/Essey, France (7180): wind speed & gusts: 10.01.2018 08:00:00 - 16.01.2018 08:00:00 (CET)Nancy/Essey, France (7180): wind direction: 10.01.2018 08:00:00 - 16.01.2018 08:00:00 (CET)Nancy/Essey, France (7180): reduced air pressure: 10.01.2018 08:00:00 - 16.01.2018 08:00:00 (CET)Nancy/Essey, France (7180): visibility: 10.01.2018 08:00:00 - 16.01.2018 08:00:00 (CET)Nancy/Essey, France (7180): sunshine duration: 10.01.2018 08:00:00 - 16.01.2018 08:00:00 (CET)Nancy/Essey, France (7180): precipitation: 10.01.2018 08:00:00 - 16.01.2018 08:00:00 (CET)
Date & Time tt [°C] td [°C] tt 5cm [°C] tt -20cm [°C] tt -100cm [°C] ff [km/h] ff [kn] fx [km/h] fx [kn] dd ppp [hPa] vv [km] sd [min] rr [mm]
16.01.2018 08:00:00 7,7 5,3 6,2 5,0 7,9 24 13 56 31 WSW 999,7 60 0 0,6
16.01.2018 07:00:00 8,1 5,9 6,8 5,0 7,9 27 15 65 35 WSW 1000,1 9 0 0,4
16.01.2018 06:00:00 8,5 5,6 6,8 5,0 7,9 28 15 63 34 WSW 999,6 10 0 1,0
16.01.2018 05:00:00 7,9 6,4 6,8 4,9 7,9 23 12 41 22 SW 1000,1 6 0 1,0
16.01.2018 04:00:00 8,0 6,1 6,8 4,8 7,9 21 11 41 22 SW 1001,1 16 0 0,2
16.01.2018 03:00:00 8,3 5,6 6,7 4,8 7,9 21 11 44 24 SW 1001,9 60 0 0,4
16.01.2018 02:00:00 7,7 6,0 6,4 4,8 7,9 16 9 39 21 SSW 1002,3 32 0 0,8
16.01.2018 01:00:00 7,5 5,8 6,2 4,7 8,0 21 11 49 27 SW 1003,0 16 0 1,0
16.01.2018 00:00:00 7,3 5,8 5,5 4,7 8,0 23 12 46 25 SW 1002,9 12 0 2,4
15.01.2018 23:00:00 6,2 5,0 5,2 4,7 8,0 23 13 58 31 SSW 1003,0 7 0 2,6
15.01.2018 22:00:00 6,1 4,6 5,1 4,7 8,0 29 16 61 33 SSW 1003,2 6 0 1,5
15.01.2018 21:00:00 6,1 4,3 4,9 4,6 8,0 35 19 77 41 SSW 1003,4 8 0 1,0
15.01.2018 20:00:00 6,0 3,8 4,7 4,6 8,0 41 22 69 37 SSW 1003,7 10 0 1,4
15.01.2018 19:00:00 5,9 3,7 4,5 4,5 8,0 32 17 64 34 SSW 1004,5 10 0 2,2
15.01.2018 18:00:00 6,1 3,6 4,7 4,5 8,0 31 17 61 33 SSW 1005,8 10 0 1,2
15.01.2018 17:00:00 7,0 2,9 5,9 4,4 8,0 29 16 56 31 SSW 1007,5 10 0 0,0
15.01.2018 16:00:00 6,7 3,1 5,3 4,4 8,0 19 10 45 24 S 1008,6 20 0 0,2
15.01.2018 15:00:00 6,5 3,1 6,2 4,3 8,0 24 13 39 21 S 1009,7 10 0 0,0
15.01.2018 14:00:00 6,9 3,0 7,0 4,3 8,0 23 12 42 23 S 1012,3 21 3 0,0
15.01.2018 13:00:00 6,6 2,7 7,1 4,2 8,0 21 12 43 23 SSW 1014,2 26 0 0,0
15.01.2018 12:00:00 6,1 2,4 4,8 4,3 8,1 18 10 29 16 S 1015,7 17 11 0,0
15.01.2018 11:00:00 4,5 1,5 3,8 4,3 8,1 16 9 30 16 S 1016,8 11 0 0,0
15.01.2018 10:00:00 3,7 0,9 2,6 4,3 8,1 13 7 24 13 S 1017,7 11 0 0,0
15.01.2018 09:00:00 3,0 0,4 2,2 4,3 8,1 11 6 24 13 SSE 1018,4 11 0 0,0
15.01.2018 08:00:00 2,9 0,1 2,1 4,3 8,1 13 7 24 13 S 1018,8 10 0 0,0
15.01.2018 07:00:00 2,9 0,1 1,1 4,4 8,1 9 5 18 10 S 1018,9 11 0 0,0
15.01.2018 06:00:00 1,7 -0,1 -1,5 4,4 8,1 6 4 14 7 SSE 1019,3 11 0 0,0
15.01.2018 05:00:00 0,2 -1,2 -1,2 4,5 8,1 1 1 5 3 ESE 1019,9 7 0 0,0
15.01.2018 04:00:00 0,3 -0,7 -1,3 4,5 8,1 3 1 8 4 SE 1020,2 7 0 0,0
15.01.2018 03:00:00 -0,7 -1,4 -2,0 4,6 8,1 4 2 6 3 - 1020,9 5 0 0,0
15.01.2018 02:00:00 -1,2 -1,8 -1,9 4,6 8,1 2 1 4 2 - 1021,2 5 0 0,0
15.01.2018 01:00:00 -1,9 -2,3 -5,2 4,6 8,1 2 1 7 4 - 1021,9 5 0 0,0
15.01.2018 00:00:00 -2,3 -2,9 -5,2 4,7 8,1 3 2 7 4 SE 1022,3 3,0 0 0,0
14.01.2018 23:00:00 -1,9 -2,6 -4,6 4,7 8,2 4 2 8 4 E 1022,1 4,9 0 0,0
14.01.2018 22:00:00 -1,5 -2,2 -4,1 4,8 8,2 5 3 6 3 ESE 1022,3 3,4 0 0,0
14.01.2018 21:00:00 -1,1 -1,9 -4,2 4,8 8,2 2 1 5 3 SE 1021,9 4,2 0 0,0
14.01.2018 20:00:00 -0,7 -2,1 -3,6 4,8 8,1 2 1 6 4 SE 1021,8 6 0 0,0
14.01.2018 19:00:00 1,3 -0,8 -1,9 4,8 8,2 4 2 8 4 ENE 1021,4 8 0 0,0
14.01.2018 18:00:00 1,6 -1,1 -1,3 4,8 8,2 7 4 11 6 E 1021,0 8 0 0,0
14.01.2018 17:00:00 3,0 0,2 0,5 4,7 8,2 8 4 15 8 E 1020,6 10 18 0,0
14.01.2018 16:00:00 5,4 1,3 5,3 4,7 8,2 8 5 16 9 E 1020,3 16 60 0,0
14.01.2018 15:00:00 6,1 1,2 8,3 4,8 8,2 9 5 14 8 NE 1019,9 17 60 0,0
14.01.2018 14:00:00 5,9 1,0 6,6 4,8 8,2 4 2 11 6 E 1019,9 17 57 0,0
14.01.2018 13:00:00 4,7 0,6 7,6 4,9 8,2 5 3 11 6 ESE 1020,2 10 60 0,0
14.01.2018 12:00:00 3,2 0,6 5,0 4,9 8,2 8 4 17 9 NNE 1020,7 10 60 0,0
14.01.2018 11:00:00 1,5 -0,1 0,1 5,0 8,2 9 5 14 8 NE 1021,2 9 60 0,0
14.01.2018 10:00:00 -0,4 -1,2 -3,5 5,1 8,2 9 5 11 6 ENE 1021,0 4,8 60 0,0
14.01.2018 09:00:00 -2,8 -3,3 -6,5 5,2 8,2 3 1 6 4 ESE 1021,0 4,3 9 0,0
14.01.2018 08:00:00 -3,0 -3,7 -6,2 5,3 8,2 3 2 7 4 SSW 1020,6 3,4 0 0,0
14.01.2018 07:00:00 -2,8 -3,3 -6,0 5,3 8,2 3 2 8 5 ESE 1020,6 3,4 0 0,0
14.01.2018 06:00:00 -2,8 -3,3 -5,6 5,4 8,2 4 2 6 3 SE 1020,3 3,4 0 0,0
14.01.2018 05:00:00 -1,9 -2,5 -5,3 5,5 8,2 3 2 6 3 S 1020,3 2,7 0 0,0
14.01.2018 04:00:00 -1,5 -2,1 -5,0 5,5 8,2 4 2 5 3 SW 1020,3 3,5 0 0,0
14.01.2018 03:00:00 -1,4 -2,1 -4,3 5,6 8,2 2 1 10 5 E 1020,3 5 0 0,0
14.01.2018 02:00:00 -1,7 -2,1 -5,5 5,7 8,2 2 1 9 5 - 1020,2 6 0 0,0
14.01.2018 01:00:00 -1,8 -2,6 -4,6 5,7 8,2 5 3 7 4 E 1020,7 3,6 0 0,0
14.01.2018 00:00:00 -0,5 -1,6 -3,9 5,8 8,2 4 2 8 4 E 1020,7 5 0 0,0
13.01.2018 23:00:00 0,1 -1,0 -3,7 5,8 8,2 4 2 11 6 NE 1020,6 7 0 0,0
13.01.2018 22:00:00 -0,1 -1,2 -3,1 5,9 8,3 4 2 12 7 ENE 1020,6 7 0 0,0
13.01.2018 21:00:00 0,2 -1,2 -2,2 5,9 8,2 9 5 16 9 NE 1020,8 8 0 0,0
13.01.2018 20:00:00 0,6 -0,9 -2,0 5,9 8,2 11 6 20 11 NE 1020,8 9 0 0,0
13.01.2018 19:00:00 1,9 0,0 0,2 5,9 8,2 14 7 25 13 ENE 1020,7 11 0 0,0
13.01.2018 18:00:00 2,6 0,0 1,1 5,9 8,2 16 9 25 13 ENE 1020,9 14 0 0,0
13.01.2018 17:00:00 3,7 0,2 2,5 5,9 8,3 18 10 27 15 ENE 1020,9 16 35 0,0
13.01.2018 16:00:00 4,7 0,6 4,4 5,9 8,3 18 10 29 16 ENE 1021,2 18 45 0,0
13.01.2018 15:00:00 4,8 0,6 4,8 5,9 8,3 18 10 32 17 ENE 1021,6 19 42 0,0
13.01.2018 14:00:00 5,2 0,6 5,4 5,9 8,3 20 11 32 18 E 1022,0 17 2 0,0
13.01.2018 13:00:00 5,1 0,7 5,6 5,9 8,2 16 9 32 17 ENE 1023,0 19 38 0,0
13.01.2018 12:00:00 4,9 0,8 5,8 6,0 8,3 18 10 26 14 ENE 1023,9 10 55 0,0
13.01.2018 11:00:00 3,7 1,1 3,5 6,0 8,3 16 9 25 13 ENE 1024,3 10 60 0,0
13.01.2018 10:00:00 1,3 0,3 -0,6 6,1 8,2 9 5 15 8 NE 1024,5 5 60 0,0
13.01.2018 09:00:00 0,1 -0,6 -3,7 6,1 8,3 11 6 15 8 NNE 1024,5 3,9 8 0,0
13.01.2018 08:00:00 -1,1 -1,9 -3,4 6,2 8,3 9 5 14 7 NE 1024,8 3,4 0 0,0
13.01.2018 07:00:00 0,2 -0,4 -2,5 6,2 8,3 4 2 12 6 NNE 1025,2 4,3 0 0,0
13.01.2018 06:00:00 0,3 -1,0 -1,5 6,2 8,3 8 4 14 8 ENE 1025,2 5 0 0,0
13.01.2018 05:00:00 2,2 0,3 0,9 6,2 8,3 8 4 21 12 ENE 1025,4 7 0 0,0
13.01.2018 04:00:00 3,7 1,2 3,1 6,3 8,3 10 5 18 10 E 1025,7 12 0 0,0
13.01.2018 03:00:00 3,6 1,5 3,1 6,4 8,3 11 6 21 12 ENE 1025,8 11 0 0,0
13.01.2018 02:00:00 3,5 2,2 2,7 6,4 8,3 10 5 16 9 E 1026,2 8 0 0,0
13.01.2018 01:00:00 3,4 2,1 2,0 6,5 8,3 13 7 19 10 ENE 1026,4 7 0 0,0
13.01.2018 00:00:00 2,8 2,1 0,6 6,5 8,3 8 4 16 9 ENE 1026,7 4,7 0 0,0
12.01.2018 23:00:00 2,3 1,6 -1,3 6,6 8,3 11 6 21 11 NE 1026,7 3,8 0 0,0
12.01.2018 22:00:00 0,9 0,0 -1,5 6,6 8,3 11 6 17 9 NE 1026,7 4,3 0 0,0
12.01.2018 21:00:00 2,1 1,4 -0,8 6,6 8,3 11 6 14 7 NE 1026,2 5 0 0,0
12.01.2018 20:00:00 1,9 0,9 -0,9 6,7 8,3 8 5 13 7 NE 1025,8 4,8 0 0,0
12.01.2018 19:00:00 1,7 0,2 -0,8 6,6 8,3 10 6 12 7 NE 1025,8 6 0 0,0
12.01.2018 18:00:00 3,2 1,9 0,5 6,6 8,3 8 4 13 7 NE 1025,7 9 0 0,0
12.01.2018 17:00:00 4,9 2,9 2,4 6,5 8,3 5 3 11 6 N 1025,4 15 34 0,0
12.01.2018 16:00:00 8,2 4,6 7,9 6,5 8,3 4 2 14 7 NE 1024,9 19 49 0,0
12.01.2018 15:00:00 8,3 4,5 8,9 6,4 8,3 9 5 24 13 N 1024,9 15 46 0,0
12.01.2018 14:00:00 7,8 5,3 8,6 6,4 8,3 7 4 16 8 N 1024,9 15 24 0,0
12.01.2018 13:00:00 7,3 5,3 7,9 6,4 8,3 8 4 15 8 E 1025,3 10 18 0,0
12.01.2018 12:00:00 6,2 5,5 6,4 6,4 8,3 4 2 9 5 - 1025,7 8 0 0,0
12.01.2018 11:00:00 5,8 5,5 5,4 6,4 8,3 3 1 6 3 NNW 1025,8 5 0 0,0
12.01.2018 10:00:00 5,4 5,1 3,7 6,4 8,3 6 3 9 5 NW 1025,4 4,1 0 0,0
12.01.2018 09:00:00 4,2 3,9 3,3 6,5 8,3 0 0 6 3 N 1025,0 3,1 0 0,0
12.01.2018 08:00:00 4,4 4,1 3,3 6,5 8,3 0 0 5 3 N 1024,7 3,6 0 0,0
12.01.2018 07:00:00 4,2 4,1 3,1 6,5 8,3 4 2 7 4 ESE 1024,3 2,0 0 0,0
12.01.2018 06:00:00 4,4 4,3 2,6 6,6 8,3 4 2 5 3 WNW 1023,8 1,8 0 0,0
12.01.2018 05:00:00 3,6 3,5 2,1 6,7 8,3 3 1 5 3 SW 1023,8 1,3 0 0,0
12.01.2018 04:00:00 3,2 3,1 0,9 6,7 8,3 1 1 4 2 W 1023,7 1,8 0 0,0
12.01.2018 03:00:00 1,5 1,2 0,0 6,8 8,3 3 2 6 4 ENE 1023,6 0,2 0 0,0
12.01.2018 02:00:00 1,2 0,9 -0,8 6,8 8,3 4 2 6 4 NNE 1023,0 0,1 0 0,0
12.01.2018 01:00:00 1,9 1,6 -0,8 6,9 8,3 2 1 5 3 NNE 1022,6 0,2 0 0,0
12.01.2018 00:00:00 2,2 1,9 -0,7 6,9 8,3 4 2 8 4 SE 1022,4 0,8 0 0,0
11.01.2018 23:00:00 2,1 1,7 -0,9 6,9 8,3 2 1 3 2 NE 1022,0 0,9 0 0,0
11.01.2018 22:00:00 3,4 2,8 0,1 6,9 8,3 1 0 7 4 ENE 1021,4 0,5 0 0,0
11.01.2018 21:00:00 4,6 4,0 1,3 6,9 8,3 2 1 6 4 NNE 1020,8 5 0 0,0
11.01.2018 20:00:00 4,3 3,4 2,0 6,9 8,3 4 2 6 3 ENE 1020,4 7 0 0,0
11.01.2018 19:00:00 4,9 3,9 2,8 6,9 8,3 5 3 6 4 NE 1019,7 9 0 0,0
11.01.2018 18:00:00 6,5 5,0 4,6 6,9 8,3 2 1 9 5 ENE 1018,9 11 0 0,0
11.01.2018 17:00:00 6,9 5,5 6,0 6,8 8,3 8 5 11 6 NE 1018,5 14 0 0,0
11.01.2018 16:00:00 7,7 5,7 7,5 6,8 8,3 6 3 10 6 NNE 1017,6 17 0 0,0
11.01.2018 15:00:00 7,8 5,6 8,0 6,7 8,3 6 4 9 5 NE 1016,8 17 0 0,0
11.01.2018 14:00:00 7,8 5,4 9,2 6,7 8,3 5 3 9 5 E 1016,3 8 0 0,0
11.01.2018 13:00:00 7,9 5,7 8,8 6,7 8,3 3 2 6 3 E 1016,3 9 17 0,0
11.01.2018 12:00:00 7,0 5,6 6,9 6,7 8,3 2 1 8 4 - 1016,3 10 36 0,0
11.01.2018 11:00:00 5,5 5,4 4,2 6,8 8,4 2 1 5 3 S 1016,1 6 0 0,0
11.01.2018 10:00:00 3,8 3,5 1,4 6,8 8,3 2 1 12 7 N 1015,7 2,9 0 0,0
11.01.2018 09:00:00 2,1 1,7 0,0 6,9 8,3 6 4 9 5 NE 1015,0 1,5 0 0,0
11.01.2018 08:00:00 2,7 2,3 0,5 6,9 8,3 1 1 9 5 ENE 1014,4 0,3 0 0,0
11.01.2018 07:00:00 3,2 2,8 0,3 6,9 8,3 5 3 13 7 E 1013,7 4,5 0 0,0
11.01.2018 06:00:00 3,8 3,1 1,1 6,9 8,3 3 2 8 5 E 1013,0 1,1 0 0,0
11.01.2018 05:00:00 4,7 4,0 2,3 7,0 8,3 6 3 8 5 ESE 1012,4 6 0 0,0
11.01.2018 04:00:00 5,5 4,3 3,9 7,0 8,3 2 1 10 5 SE 1012,2 11 0 0,0
11.01.2018 03:00:00 5,9 5,2 3,5 7,0 8,4 5 3 9 5 - 1012,1 10 0 0,0
11.01.2018 02:00:00 6,4 5,5 5,0 7,0 8,3 6 4 13 7 S 1011,7 16 0 0,0
11.01.2018 01:00:00 5,9 5,3 4,9 7,0 8,3 4 2 10 5 ESE 1011,9 10 0 0,0
11.01.2018 00:00:00 6,0 5,6 3,8 7,0 8,4 6 4 10 5 ENE 1011,8 13 0 0,0
10.01.2018 23:00:00 5,4 4,8 3,9 7,0 8,3 2 1 7 4 NE 1011,8 4,3 0 0,0
10.01.2018 22:00:00 5,9 5,5 5,0 7,0 8,4 5 3 8 4 E 1011,8 7 0 0,0
10.01.2018 21:00:00 5,9 5,2 5,1 7,0 8,3 5 3 8 5 ENE 1011,7 4,7 0 0,0
10.01.2018 20:00:00 6,5 5,4 5,9 7,0 8,4 6 4 11 6 SSE 1011,7 7 0 0,0
10.01.2018 19:00:00 6,6 4,9 5,9 6,9 8,3 5 3 17 9 SE 1011,5 18 0 0,0
10.01.2018 18:00:00 6,8 4,9 5,0 6,9 8,3 9 5 - - SSW 1011,4 42 0 0,0
10.01.2018 17:00:00 6,8 5,7 6,2 6,9 8,3 9 5 19 10 S 1011,2 8 0 0,0
10.01.2018 16:00:00 7,1 5,2 6,4 6,9 8,3 10 6 23 12 S 1010,6 43 0 0,0
10.01.2018 15:00:00 7,4 5,2 6,7 6,9 8,3 11 6 20 11 S 1010,2 24 0 0,2
10.01.2018 14:00:00 7,3 5,4 6,9 6,9 8,4 10 5 28 15 S 1010,3 37 0 0,2
10.01.2018 13:00:00 7,7 4,6 7,5 6,9 8,3 15 8 28 15 S 1010,9 16 0 0,0
10.01.2018 12:00:00 7,8 4,2 8,2 6,9 8,3 9 5 23 12 S 1011,6 60 0 0,0
10.01.2018 11:00:00 7,3 4,1 6,9 6,9 8,3 11 6 21 11 S 1012,1 60 23 0,0
10.01.2018 10:00:00 6,1 3,9 3,5 7,0 8,3 5 3 15 8 S 1012,3 33 15 0,0
10.01.2018 09:00:00 4,8 3,8 1,4 7,0 8,3 7 4 12 7 S 1012,3 33 0 0,0
10.01.2018 08:00:00 3,4 2,1 1,4 7,0 8,3 3 2 11 6 SE 1012,2 19 0 0,0

tt = temperature
td = dewpoint
tt 5cm = temperature 5cm
tt -20cm = temperature -20cm
tt -100cm = temperature -100cm
ff = wind speed
fx = gusts
dd = wind direction
ppp = reduced air pressure
vv = visibility
sd = sunshine duration
rr = precipitation

Next stations